Weather History for Sarasota, FL

Change the Weather History Date:

Monday, March 12, 2012

  Actual Average Record
Temperature  
Mean Temperature 76 °F 66 °F  
Max Temperature 86 °F 76 °F 86 °F (1973)
Min Temperature 65 °F 57 °F 36 °F (1934)
Degree Days  
Heating Degree Days 0 2  
Month to date heating degree days 7 29  
Since 1 July heating degree days 205 447  
Cooling Degree Days 11 3  
Month to date cooling degree days 88 36  
Year to date cooling degree days 267 140  
Growing Degree Days 24 (Base 50)    
Moisture  
Dew Point 62 °F    
Average Humidity 70    
Maximum Humidity 93    
Minimum Humidity 40    
Precipitation  
Precipitation 0.00 in 0.12 in 4.98 in (1958)
Month to date precipitation 0.25 1.62  
Year to date precipitation 1.98 6.81  
Sea Level Pressure  
Sea Level Pressure 30.22 in    
Wind  
Wind Speed 10 mph (East)    
Max Wind Speed 23 mph    
Max Gust Speed 28 mph    
Visibility 10 miles    
Events      
T = Trace of Precipitation, MM = Missing Value Source: NWS Daily Summary

Daily Weather History Graph

Daily Weather History Graph

Search for Another Location

Airport:

Trip Planner

Search our weather history database for the weather conditions in past years. The results will help you decide how hot, cold, wet, or windy it might be!

Date:

Astronomy

Mar. 12, 2012 Rise Set
Actual Time 7:42 AM EDT 7:37 PM EDT
Civil Twilight 7:19 AM EDT 8:00 PM EDT
Nautical Twilight 6:52 AM EDT 8:27 PM EDT
Astronomical Twilight 6:25 AM EDT 8:55 PM EDT
Moon No Moon Rise 10:33 AM EDT (3/12)
Length of Visible Light 12h 41m
Length of Day
11h 55m
Waning Gibbous, 76% of the Moon is Illuminated
Mar 12
Waning Gibbous
Mar 14
Last Quarter
Mar 22
New
Mar 30
First Quarter
Apr 6
Full

Hourly Weather History & Observations

Time (EDT) Temp. Heat Index Dew Point Humidity Pressure Visibility Wind Dir Wind Speed Gust Speed Precip Events Conditions
12:53 AM 69.8 °F - 64.4 °F 83% 30.25 in 10.0 mi East 11.5 mph - N/A   Overcast
1:53 AM 69.1 °F - 64.9 °F 87% 30.24 in 10.0 mi East 10.4 mph - N/A   Overcast
2:39 AM 69.8 °F - 64.4 °F 83% 30.22 in 10.0 mi East 11.5 mph - N/A   Overcast
2:53 AM 69.1 °F - 64.0 °F 84% 30.22 in 10.0 mi East 13.8 mph 18.4 mph N/A   Mostly Cloudy
3:30 AM 68.0 °F - 64.4 °F 88% 30.21 in 10.0 mi East 11.5 mph - N/A   Scattered Clouds
3:53 AM 68.0 °F - 63.0 °F 84% 30.21 in 10.0 mi East 10.4 mph - N/A   Partly Cloudy
4:53 AM 66.9 °F - 63.0 °F 87% 30.21 in 10.0 mi ENE 8.1 mph - N/A   Clear
5:53 AM 66.0 °F - 62.1 °F 87% 30.22 in 10.0 mi East 8.1 mph - N/A   Clear
6:53 AM 66.0 °F - 62.1 °F 87% 30.24 in 10.0 mi ENE 8.1 mph - N/A   Clear
7:53 AM 64.9 °F - 62.1 °F 90% 30.25 in 10.0 mi ENE 8.1 mph - N/A   Mostly Cloudy
8:53 AM 68.0 °F - 62.1 °F 81% 30.27 in 10.0 mi East 10.4 mph - N/A   Clear
9:53 AM 73.0 °F - 63.0 °F 71% 30.26 in 10.0 mi East 17.3 mph 23.0 mph N/A   Clear
10:53 AM 75.9 °F - 62.1 °F 62% 30.26 in 10.0 mi East 19.6 mph - N/A   Clear
11:53 AM 79.0 °F - 61.0 °F 54% 30.26 in 10.0 mi ESE 16.1 mph - N/A   Clear
12:53 PM 82.0 °F 82.7 °F 61.0 °F 49% 30.24 in 10.0 mi East 10.4 mph - N/A   Partly Cloudy
1:53 PM 82.9 °F 83.2 °F 60.1 °F 46% 30.22 in 10.0 mi ESE 12.7 mph 20.7 mph N/A   Mostly Cloudy
2:53 PM 82.9 °F 83.2 °F 60.1 °F 46% 30.19 in 10.0 mi ESE 11.5 mph - N/A   Mostly Cloudy
3:53 PM 84.9 °F 84.2 °F 57.9 °F 40% 30.17 in 10.0 mi ESE 10.4 mph - N/A   Mostly Cloudy
4:53 PM 77.0 °F - 64.0 °F 64% 30.18 in 10.0 mi WNW 12.7 mph 20.7 mph N/A   Overcast
5:53 PM 78.1 °F - 64.0 °F 62% 30.17 in 10.0 mi WNW 9.2 mph - N/A   Overcast
6:53 PM 75.9 °F - 66.9 °F 74% 30.18 in 10.0 mi West 9.2 mph - N/A   Overcast
7:53 PM 75.0 °F - 66.0 °F 73% 30.19 in 10.0 mi West 5.8 mph - N/A   Mostly Cloudy
8:53 PM 73.0 °F - 59.0 °F 61% 30.20 in 10.0 mi East 6.9 mph - N/A   Clear
9:53 PM 72.0 °F - 57.9 °F 61% 30.21 in 10.0 mi East 9.2 mph - N/A   Clear
10:53 PM 70.0 °F - 57.0 °F 63% 30.23 in 10.0 mi East 6.9 mph - N/A   Clear
11:53 PM 68.0 °F - 55.9 °F 65% 30.25 in 10.0 mi East 6.9 mph - N/A   Clear